Three Rivers, MI

5:59 AM EDT on August 17, 2017 (GMT -0400)
Three Rivers Municipal-Haines

Weather History for KHAI - December, 2013

Change the Weather History Date:

Sunday, December 15, 2013

  Actual Average Record
Temperature  
Mean Temperature 20 °F -  
Max Temperature 26 °F 37 °F 61 °F (1971)
Min Temperature 13 °F 21 °F -6 °F (1958)
Degree Days  
Heating Degree Days 46    
Moisture  
Dew Point 16 °F    
Average Humidity 82    
Maximum Humidity 87    
Minimum Humidity 74    
Precipitation  
Precipitation 0.00 in - - ()
Sea Level Pressure  
Sea Level Pressure 29.92 in    
Wind  
Wind Speed 7 mph (WSW)    
Max Wind Speed 17 mph    
Max Gust Speed 25 mph    
Visibility 5 miles    
Events Snow    
Averages and records for this station are not official NWS values.
T = Trace of Precipitation, MM = Missing Value Source: NWS Daily Summary

Daily Weather History Graph

Daily Weather History Graph

Search for Another Location

Airport or City:

Trip Planner

Search our weather history database for the weather conditions in past years. The results will help you decide how hot, cold, wet, or windy it might be!

Date:

Astronomy

Dec. 15, 2013 Rise Set
Actual Time 8:03 AM EST 5:11 PM EST
Civil Twilight 7:31 AM EST 5:43 PM EST
Nautical Twilight 6:56 AM EST 6:18 PM EST
Astronomical Twilight 6:22 AM EST 6:52 PM EST
Moon 4:16 PM EST (12/15) 6:17 AM EST (12/15)
Length of Visible Light 10h 11m
Length of Day
9h 08m
Waxing Gibbous, 97% of the Moon is Illuminated
Dec 15
Waxing Gibbous
Dec 17
Full
Dec 25
Last Quarter
Jan 1
New
Jan 7
First Quarter

Hourly Weather History & Observations

Time (EST) Temp. Windchill Dew Point Humidity Pressure Visibility Wind Dir Wind Speed Gust Speed Precip Events Conditions
12:15 AM 20.7 °F 13.0 °F 16.5 °F 84% 29.88 in 10.0 mi WNW 5.8 mph - N/A   Overcast
12:35 AM 20.7 °F 11.9 °F 16.5 °F 84% 29.88 in 10.0 mi WNW 6.9 mph - N/A   Overcast
12:54 AM 20.8 °F 14.4 °F 16.5 °F 83% 29.88 in 10.0 mi WNW 4.6 mph - N/A   Overcast
1:15 AM 21.2 °F 16.4 °F 16.7 °F 83% 29.87 in 10.0 mi WNW 3.5 mph - N/A   Overcast
1:35 AM 21.0 °F 14.6 °F 16.7 °F 83% 29.87 in 10.0 mi West 4.6 mph - N/A   Overcast
1:54 AM 21.2 °F 16.4 °F 16.7 °F 83% 29.87 in 10.0 mi West 3.5 mph - N/A   Overcast
2:15 AM 21.2 °F 14.9 °F 17.1 °F 84% 29.87 in 10.0 mi West 4.6 mph - N/A   Overcast
2:35 AM 21.6 °F 16.8 °F 17.2 °F 83% 29.87 in 10.0 mi WSW 3.5 mph - N/A   Overcast
2:55 AM 21.9 °F - 17.6 °F 83% 29.87 in 10.0 mi Calm Calm - N/A   Overcast
3:15 AM 21.7 °F - 17.4 °F 83% 29.87 in 10.0 mi Calm Calm - N/A   Overcast
3:34 AM 22.1 °F - 17.8 °F 83% 29.87 in 10.0 mi Calm Calm - N/A   Overcast
3:55 AM 22.1 °F 14.7 °F 18.0 °F 84% 29.87 in 10.0 mi SW 5.8 mph - N/A Snow Light Snow
4:15 AM 22.1 °F 17.4 °F 18.1 °F 85% 29.86 in 7.0 mi SSW 3.5 mph - N/A Snow Light Snow
4:35 AM 22.1 °F 15.9 °F 18.3 °F 85% 29.86 in 10.0 mi SW 4.6 mph - N/A Snow Light Snow
4:55 AM 22.8 °F 15.5 °F 19.0 °F 85% 29.86 in 5.0 mi SSW 5.8 mph - N/A Snow Light Snow
5:15 AM 22.6 °F 16.5 °F 19.0 °F 86% 29.85 in 5.0 mi SSW 4.6 mph - N/A Snow Light Snow
5:35 AM 22.8 °F 16.7 °F 19.4 °F 87% 29.85 in 7.0 mi SSW 4.6 mph - N/A Snow Light Snow
5:55 AM 25.2 °F 17.3 °F 21.7 °F 87% 29.85 in 7.0 mi WSW 6.9 mph - N/A Snow Light Snow
6:14 AM 26.2 °F 17.1 °F 22.1 °F 84% 29.85 in 7.0 mi WSW 9.2 mph - N/A Snow Light Snow
6:35 AM 26.4 °F 17.3 °F 21.7 °F 82% 29.85 in 10.0 mi WSW 9.2 mph 17.3 mph N/A   Overcast
6:55 AM 25.9 °F 18.2 °F 21.4 °F 83% 29.85 in 10.0 mi West 6.9 mph 18.4 mph N/A Snow Light Snow
7:14 AM 25.3 °F 13.6 °F 21.0 °F 84% 29.86 in 7.0 mi WSW 13.8 mph 17.3 mph N/A Snow Light Snow
7:35 AM 24.8 °F 14.0 °F 20.3 °F 83% 29.85 in 7.0 mi WSW 11.5 mph 18.4 mph N/A Snow Light Snow
7:55 AM 24.4 °F 13.5 °F 20.3 °F 84% 29.86 in 7.0 mi WSW 11.5 mph 16.1 mph N/A Snow Light Snow
8:14 AM 23.9 °F 13.5 °F 19.4 °F 83% 29.86 in 7.0 mi WSW 10.4 mph - N/A Snow Light Snow
8:35 AM 23.4 °F 14.3 °F 19.0 °F 84% 29.87 in 4.0 mi WSW 8.1 mph - N/A Snow Light Snow
8:55 AM 22.8 °F 10.4 °F 18.3 °F 83% 29.88 in 2.5 mi WSW 13.8 mph 20.7 mph N/A Snow Light Snow
9:15 AM 22.3 °F 12.2 °F 17.6 °F 82% 29.88 in 1.8 mi WSW 9.2 mph 16.1 mph N/A Snow Light Snow
9:35 AM 21.9 °F 11.7 °F 17.6 °F 83% 29.89 in 1.5 mi SW 9.2 mph - N/A Snow Light Snow
9:55 AM 21.2 °F 10.9 °F 16.7 °F 83% 29.88 in 1.2 mi SW 9.2 mph - N/A Snow Light Snow
10:15 AM 20.3 °F 9.8 °F 16.2 °F 84% 29.89 in 1.5 mi SW 9.2 mph - N/A Snow Light Snow
10:35 AM 20.3 °F 9.0 °F 15.8 °F 83% 29.89 in 1.8 mi SW 10.4 mph - N/A Snow Light Snow
10:54 AM 20.1 °F 10.3 °F 15.8 °F 83% 29.90 in 1.5 mi WSW 8.1 mph - N/A Snow Light Snow
11:15 AM 20.3 °F 10.6 °F 15.8 °F 83% 29.90 in 2.0 mi WSW 8.1 mph - N/A Snow Light Snow
11:35 AM 22.5 °F 11.1 °F 17.2 °F 80% 29.90 in 2.5 mi West 11.5 mph 19.6 mph N/A Snow Light Snow
11:54 AM 22.1 °F 8.5 °F 16.3 °F 79% 29.90 in 3.0 mi West 16.1 mph 24.2 mph N/A Snow Light Snow
12:15 PM 22.1 °F 10.6 °F 16.7 °F 80% 29.90 in 1.2 mi West 11.5 mph 18.4 mph N/A Snow Light Snow
12:35 PM 22.1 °F 8.9 °F 16.0 °F 77% 29.89 in 2.0 mi West 15.0 mph 24.2 mph N/A Snow Light Snow
12:54 PM 22.1 °F 8.0 °F 15.6 °F 76% 29.89 in 3.0 mi West 17.3 mph 25.3 mph N/A Snow Light Snow
1:15 PM 22.1 °F 8.0 °F 15.3 °F 75% 29.90 in 3.0 mi West 17.3 mph 20.7 mph N/A Snow Light Snow
1:35 PM 21.9 °F 8.7 °F 14.7 °F 74% 29.89 in 5.0 mi West 15.0 mph 21.9 mph N/A Snow Light Snow
1:54 PM 21.9 °F 7.8 °F 14.9 °F 74% 29.90 in 2.5 mi West 17.3 mph - N/A Snow Light Snow
2:15 PM 21.6 °F 9.3 °F 15.6 °F 78% 29.90 in 1.2 mi West 12.7 mph - N/A Snow Light Snow
2:35 PM 21.2 °F 8.3 °F 15.8 °F 80% 29.90 in 1.2 mi West 13.8 mph 19.6 mph N/A Snow Light Snow
2:55 PM 21.2 °F 8.9 °F 15.8 °F 80% 29.91 in 1.2 mi West 12.7 mph 17.3 mph N/A Snow Light Snow
3:15 PM 21.0 °F 9.9 °F 15.8 °F 80% 29.92 in 1.5 mi West 10.4 mph - N/A Snow Light Snow
3:34 PM 20.7 °F 6.6 °F 14.9 °F 78% 29.92 in 1.8 mi West 16.1 mph 20.7 mph N/A Snow Light Snow
3:55 PM 20.3 °F 8.3 °F 15.4 °F 81% 29.93 in 1.0 mi West 11.5 mph - N/A Snow Light Snow
4:15 PM 20.3 °F 9.8 °F 15.4 °F 81% 29.94 in 1.5 mi West 9.2 mph - N/A Snow Light Snow
4:35 PM 20.1 °F 9.5 °F 14.9 °F 80% 29.95 in 1.5 mi West 9.2 mph - N/A Snow Light Snow
4:55 PM 19.9 °F 12.1 °F 14.7 °F 80% 29.95 in 1.8 mi West 5.8 mph - N/A Snow Light Snow
5:15 PM 19.6 °F 10.6 °F 14.9 °F 82% 29.95 in 1.8 mi WSW 6.9 mph - N/A Snow Light Snow
5:35 PM 19.2 °F 8.4 °F 14.7 °F 83% 29.96 in 2.0 mi West 9.2 mph - N/A Snow Light Snow
5:54 PM 19.2 °F 11.3 °F 14.5 °F 82% 29.97 in 2.0 mi West 5.8 mph - N/A Snow Light Snow
6:15 PM 18.3 °F 9.1 °F 14.0 °F 83% 29.97 in 2.0 mi SW 6.9 mph - N/A Snow Light Snow
6:35 PM 17.6 °F 8.2 °F 13.5 °F 84% 29.97 in 2.5 mi WSW 6.9 mph - N/A Snow Light Snow
6:54 PM 17.6 °F 6.4 °F 13.1 °F 83% 29.98 in 2.5 mi WSW 9.2 mph - N/A Snow Light Snow
7:15 PM 17.6 °F 8.2 °F 13.1 °F 83% 29.99 in 2.5 mi WSW 6.9 mph - N/A Snow Light Snow
7:35 PM 17.4 °F 9.1 °F 12.7 °F 82% 29.99 in 4.0 mi WSW 5.8 mph - N/A Snow Light Snow
7:54 PM 17.2 °F 6.8 °F 12.6 °F 82% 30.00 in 4.0 mi SW 8.1 mph - N/A Snow Light Snow
8:15 PM 16.7 °F 7.2 °F 12.0 °F 82% 30.01 in 3.0 mi SW 6.9 mph - N/A Snow Light Snow
8:35 PM 15.8 °F 5.1 °F 10.9 °F 81% 30.02 in 3.0 mi SW 8.1 mph - N/A Snow Light Snow
8:54 PM 15.4 °F 4.6 °F 10.8 °F 82% 30.02 in 2.5 mi SW 8.1 mph - N/A Snow Light Snow
9:15 PM 15.3 °F 5.4 °F 10.4 °F 81% 30.03 in 2.5 mi SW 6.9 mph - N/A Snow Light Snow
9:35 PM 14.9 °F 5.0 °F 10.2 °F 82% 30.03 in 1.8 mi WSW 6.9 mph - N/A Snow Light Snow
9:55 PM 14.7 °F 4.8 °F 10.0 °F 82% 30.04 in 1.8 mi SW 6.9 mph - N/A Snow Light Snow
10:15 PM 14.5 °F 4.6 °F 9.5 °F 80% 30.04 in 4.0 mi SW 6.9 mph - N/A Snow Light Snow
10:35 PM 14.5 °F 5.7 °F 9.7 °F 81% 30.04 in 3.0 mi SW 5.8 mph - N/A Snow Light Snow
10:55 PM 14.4 °F 4.3 °F 9.5 °F 81% 30.04 in 5.0 mi SW 6.9 mph - N/A Snow Light Snow
11:15 PM 14.0 °F 2.9 °F 9.3 °F 82% 30.04 in 7.0 mi SW 8.1 mph - N/A Snow Light Snow
11:34 PM 13.5 °F 2.2 °F 9.0 °F 82% 30.04 in 7.0 mi SW 8.1 mph - N/A Snow Light Snow
11:55 PM 13.1 °F 2.8 °F 8.6 °F 82% 30.04 in 7.0 mi SW 6.9 mph - N/A Snow Light Snow